WetterOnline ( https://www.wetteronline.at )

Wetter aktuell Nîmes

Aktuelles Wetter: Nimes/Garons (96m)

6-stündlich | Neueste Meldungen
Ortszeit Temperatur Wetter
So, 04.12. 13:00 11.0° C -
So, 04.12. 7:00 7.5° C bedeckt
So, 04.12. 1:00 8.4° C bedeckt
Sa, 03.12. 19:00 7.1° C bedeckt
Sa, 03.12. 13:00 6.5° C Sprühregen
Sa, 03.12. 7:00 5.4° C leichter Regen
Sa, 03.12. 1:00 5.6° C bedeckt
Fr, 02.12. 19:00 6.0° C bedeckt
Ortszeit Temperatur Wetter
So, 04.12. 13:00 11.0° C -
So, 04.12. 12:00 10.5° C leichter Regen
So, 04.12. 11:00 8.7° C bedeckt
So, 04.12. 10:00 8.3° C bedeckt
So, 04.12. 9:00 7.5° C leichter Regen
So, 04.12. 8:00 7.2° C leichter Regen
So, 04.12. 7:00 7.5° C bedeckt
Ortszeit Relative Feuchte Sichtweite
So, 04.12. 13:00 89% 45 km
So, 04.12. 7:00 100% 14 km
So, 04.12. 1:00 99% 4.8 km
Sa, 03.12. 19:00 98% 6 km
Sa, 03.12. 13:00 95% 5.0 km
Sa, 03.12. 7:00 95% 8 km
Sa, 03.12. 1:00 96% 6 km
Fr, 02.12. 19:00 91% 8 km
Ortszeit Relative Feuchte Sichtweite
So, 04.12. 13:00 89% 45 km
So, 04.12. 12:00 95% 40 km
So, 04.12. 11:00 99% 9 km
So, 04.12. 10:00 100% 7 km
So, 04.12. 9:00 100% 7 km
So, 04.12. 8:00 100% 3.5 km
So, 04.12. 7:00 100% 14 km
Ortszeit Niederschlagsmenge Niederschlagsart
So, 04.12. 13:00 6 l/m2 in 6 Std. -
So, 04.12. 7:00 0.0 l/m2 in 12 Std. -
So, 04.12. 1:00 0.0 l/m2 in 6 Std. -
Sa, 03.12. 19:00 4 l/m2 in 12 Std. -
Sa, 03.12. 13:00 3 l/m2 in 6 Std. -
Sa, 03.12. 7:00 0.2 l/m2 in 12 Std. -
Sa, 03.12. 1:00 0.1 l/m2 in 6 Std. -
Fr, 02.12. 19:00 13 l/m2 in 12 Std. -
Ortszeit Niederschlagsmenge Niederschlagsart
So, 04.12. 13:00 keine Meldung -
So, 04.12. 12:00 3.0 l/m2 in 1 Std. -
So, 04.12. 11:00 0.2 l/m2 in 1 Std. -
So, 04.12. 10:00 keine Meldung -
So, 04.12. 9:00 2.0 l/m2 in 1 Std. -
So, 04.12. 8:00 0.0 l/m2 in 1 Std. -
So, 04.12. 7:00 keine Meldung -
Ortszeit Stärke Spitze Richtung
km/h Bft. km/h Grad Sektor
So, 04.12. 13:00 7 2 26 230° SW
So, 04.12. 7:00 11 2 20 90° O
So, 04.12. 1:00 6 1 15 220° SW
Sa, 03.12. 19:00 9 2 26 40° NO
Sa, 03.12. 13:00 15 3 30 30° NO
Sa, 03.12. 7:00 9 2 17 20° N
Sa, 03.12. 1:00 6 1 11 360° N
Fr, 02.12. 19:00 7 2 17 30° NO
Ortszeit Stärke Spitze Richtung
km/h Bft. km/h Grad Sektor
So, 04.12. 13:00 7 2 26 230° SW
So, 04.12. 12:00 11 2 22 160° S
So, 04.12. 11:00 7 2 20 80° O
So, 04.12. 10:00 9 2 15 90° O
So, 04.12. 9:00 7 2 17 80° O
So, 04.12. 8:00 6 1 15 280° W
So, 04.12. 7:00 11 2 20 90° O
Ortszeit Untergrenze Bedeckung Gattung
total tief tief mittel hoch
So, 04.12. 13:00 - - - - - -
So, 04.12. 7:00 - 8/8 - - - -
So, 04.12. 1:00 - 8/8 - - - -
Sa, 03.12. 19:00 - 8/8 - - - -
Sa, 03.12. 13:00 - 8/8 - - - -
Sa, 03.12. 7:00 - 8/8 - - - -
Sa, 03.12. 1:00 - 8/8 - - - -
Fr, 02.12. 19:00 - 8/8 - - - -
Ortszeit Bedeckungsgrad in Achtel und Wolkenuntergrenze
So, 04.12. 13:00 -
So, 04.12. 12:00 8
So, 04.12. 11:00 8
So, 04.12. 10:00 8
So, 04.12. 9:00 8
So, 04.12. 8:00 8
So, 04.12. 7:00 8
Ortszeit Luftdruck NN (hPa) Tendenz (hPa in 3 Std.)
So, 04.12. 13:00 1009 - 0,2
So, 04.12. 7:00 1009 - 0,2
So, 04.12. 1:00 1009 + 0,6
Sa, 03.12. 19:00 1007 + 0,4
Sa, 03.12. 13:00 1008 - 1,8
Sa, 03.12. 7:00 1011 - 0,7
Sa, 03.12. 1:00 1013 - 1,2
Fr, 02.12. 19:00 1015 - 0,6
Ortszeit Luftdruck NN (hPa) Tendenz (hPa in 3 Std.)
So, 04.12. 13:00 1009 - 0,2
So, 04.12. 12:00 1009 + 0,1
So, 04.12. 11:00 1010 0,0
So, 04.12. 10:00 1010 + 0,4
So, 04.12. 9:00 1010 + 0,3
So, 04.12. 8:00 1010 + 0,8
So, 04.12. 7:00 1009 - 0,2
Ortszeit Schneehöhe (cm)
So, 04.12. 13:00 -
So, 04.12. 7:00 -
So, 04.12. 1:00 -
Sa, 03.12. 19:00 -
Sa, 03.12. 13:00 -
Sa, 03.12. 7:00 -
Sa, 03.12. 1:00 -
Fr, 02.12. 19:00 -
Ortszeit Schneehöhe (cm)
So, 04.12. 13:00 -
So, 04.12. 12:00 -
So, 04.12. 11:00 -
So, 04.12. 10:00 -
So, 04.12. 9:00 -
So, 04.12. 8:00 -
So, 04.12. 7:00 -
Link zu dieser Seite / Seite empfehlen

Das Wetter in ...